Regional Weather Roundup
Issued by NWS

Home | Current Version | Previous Version | Graphics & Text | Print | Product List | Glossary On
Versions: 1 2 3 4 5 6 7 8 9 10 11 12 13 14 15 16 17 18 19 20 21 22 23 24 25 26 27 28 29 30 31 32 33 34 35 36 37 38 39 40 41 42 43 44 45 46 47 48 49 50
160
ASUS45 KBOU 291107
RWRCO

WEATHER ROUNDUP FOR COLORADO
NATIONAL WEATHER SERVICE DENVER/BOULDER CO
500 AM MDT SUN MAY 29 2016

NOTE: "FAIR" INDICATES FEW OR NO CLOUDS BELOW 12000 FEET WITH NO
SIGNIFICANT WEATHER AND/OR OBSTRUCTIONS TO VISIBILITY.

COZ001>005-013-030-031-291200-
...NORTHWEST COLORADO...

CITY           SKY/WX    TMP DP  RH WIND       PRES   REMARKS
CRAIG          FAIR      33  31  92 CALM      30.21R
HAYDEN         FAIR      41  32  70 E9        30.21S
MEEKER         FAIR      36  32  85 NE3       30.21R
MOUNT WERNER   NOT AVBL
STEAMBOAT SPGS FAIR      37  34  89 CALM      30.24S
WALDEN         NOT AVBL
$$

COZ006>008-011-291200-
...WEST CENTRAL VALLEYS...

CITY           SKY/WX    TMP DP  RH WIND       PRES   REMARKS
GRAND JUNCTION FAIR      50  36  58 SE10      30.12R
MONTROSE       FAIR      47  32  56 SE5       30.20R
EAGLE          FAIR      36  34  93 E5        30.29S
RIFLE          FAIR      41  33  73 S3        30.19R
DELTA          FAIR      49  33  53 E5        30.16S
NUCLA          FAIR      50  32  50 E9        30.20R
$$

COZ017>023-064>068-291200-
...SOUTHWEST COLORADO...

CITY           SKY/WX    TMP DP  RH WIND       PRES   REMARKS
DURANGO        FAIR      41  30  65 CALM      30.18S
CORTEZ         FAIR      38  30  73 NE6       30.14R
PAGOSA SPRINGS MOCLDY    43  31  63 CALM      30.26R
TELLURIDE      FAIR      43  25  50 SE10      30.33S
WOLF CREEK PAS MOCLDY    36  19  51 SW3       30.49S
$$

COZ009-010-012-014-032>034-037-058>063-291200-
...CENTRAL COLORADO...

CITY           SKY/WX    TMP DP  RH WIND       PRES   REMARKS
ASPEN          FAIR      34  28  79 S3        30.27S
BUENA VISTA    FAIR      38  28  66 CALM      30.32R
COPPER MTN     NOT AVBL
BERTHOUD PASS  FAIR      30  21  69 W10       30.47S WCI  21
COTTONWOOD PAS FAIR      45  25  45 W5        30.38R
GUNNISON       FAIR      37  28  70 W3        30.33S
KREMMLING      FAIR      32  30  93 CALM      30.32R
LEADVILLE      FAIR      25  21  85 N5        30.37S WCI  19
MONARCH PASS   FAIR      34  23  64 MISG      30.56S
SALIDA         FAIR      42  31  67 W5        30.38R
SUNLIGHT       FAIR      39  28  65 CALM      30.43S
WILKERSON PASS FAIR      34  28  80 SW3       30.47R
$$

COZ069>075-291200-
...SAN LUIS VALLEY/SANGRE DE CRISTO MOUNTAINS...

CITY           SKY/WX    TMP DP  RH WIND       PRES   REMARKS
ALAMOSA        FAIR      38  36  92 NE6       30.27S
LA VETA PASS   FAIR      43  27  52 SE3       30.40R
SAGUACHE       MOCLDY    45  32  61 N10G22    30.30R
$$

COZ035-036-038>040-291200-
...NORTHERN COLORADO FRONT RANGE...

CITY           SKY/WX    TMP DP  RH WIND       PRES   REMARKS
DENVER INTL AP FAIR      48  39  71 SW12      30.16R
DMNS CITY PARK   N/A     50  37  60 SE8       30.15S
AURORA         PTCLDY    47  39  73 S7        30.17S
FRONT RANGE AP NOT AVBL
ERIE MUNI ARPT FAIR      42  38  86 CALM      30.14S
BOULDER MUN AP FAIR      50  36  57 CALM      30.14S
CENTENNIAL     FAIR      46  37  71 SE9       30.17S
BROOMFIELD     FAIR      50  36  57 CALM      30.16S
FORT COLLINS   FAIR      48  39  71 CALM      30.14S
LONGMONT       FAIR      42  37  82 CALM      30.16R
$$

COZ041-046-047-076>085-087-088-291200-
...PIKES PEAK/PALMER DIVIDE AND SOUTHERN FOOTHILLS...

CITY           SKY/WX    TMP DP  RH WIND       PRES   REMARKS
COLO. SPRINGS  FAIR      48  38  68 N3        30.23R
A. F. ACADEMY  FAIR      39  36  87 N6        30.23R
SCHRIEVER AFB  NOT AVBL
ELLICOTT       FAIR     N/A N/A N/A CALM      30.20R
FALCON         FAIR      43  37  79 CALM      30.26R
FORT CARSON    FAIR      47  38  71 NW6       30.20R
LIMON          FAIR      40  39  97 N3        30.18R
MONUMENT HILL  FAIR      41  36  81 S10       30.25R
TRINIDAD       FAIR      50  36  58 W8        30.19R
$$

COZ042>045-048>051-090-091-291200-
...NORTHEAST COLORADO...

CITY           SKY/WX    TMP DP  RH WIND       PRES   REMARKS
GREELEY ARPT   FAIR      45  41  87 CALM      30.14R
AKRON          FAIR      45  41  86 NW6       30.13R
BURLINGTON     FAIR      50  44  80 S9        30.13S
WRAY           FAIR      52  46  82 S3        30.10S
STERLING       FAIR      45  45 100 CALM      30.10S
HOLYOKE        NOT AVBL
FORT MORGAN    FAIR      47  44  88 W5        30.13R
$$

COZ086-089-092>099-291200-
...SOUTHEAST COLORADO...

CITY           SKY/WX    TMP DP  RH WIND       PRES   REMARKS
PUEBLO         FAIR      48  44  86 W5        30.16R
LA JUNTA       FAIR      52  49  89 S5        30.12R
LAMAR          FAIR      45  43  93 CALM      30.11R
SPRINGFIELD      N/A     49  46  90 S7        30.14R
$$




USA.gov is the U.S. government's official web portal to all federal, state and local government web resources and services.